Date,TemperatureHighF,TemperatureAvgF,TemperatureLowF,DewpointHighF,DewpointAvgF,DewpointLowF,HumidityHigh,HumidityAvg,HumidityLow,PressureMaxIn,PressureMinIn,WindSpeedMaxMPH,WindSpeedAvgMPH,GustSpeedMaxMPH,PrecipitationSumIn
2013-1-1,14.0,9.3,0.0,9.0,4.6,-1.0,99,81,69,0.00,40.00,27,19,37,0.00
2013-1-2,14.0,10.4,6.0,9.0,5.2,0.0,90,79,68,0.00,40.00,32,21,39,0.00
2013-1-3,20.0,11.5,6.0,8.0,0.7,-3.0,76,61,47,0.00,40.00,24,18,32,0.00
2013-1-4,25.0,14.5,6.0,7.0,0.7,-4.0,67,53,44,0.00,40.00,18,13,21,0.00
2013-1-5,18.0,12.1,2.0,6.0,1.3,-4.0,77,61,47,0.00,40.00,20,12,23,0.00
2013-1-6,42.0,29.6,16.0,6.0,-0.2,-9.0,50,28,18,0.00,40.00,18,9,23,0.00
2013-1-7,39.0,29.4,22.0,9.0,3.0,-1.0,37,32,25,0.00,40.00,30,12,40,0.00
2013-1-8,32.0,27.3,22.0,21.0,16.4,4.0,75,63,38,0.00,40.00,43,24,58,0.00
2013-1-9,46.0,34.8,20.0,21.0,16.5,9.0,79,48,29,0.00,40.00,27,8,36,0.00
2013-1-10,47.0,38.7,30.0,13.0,9.3,6.0,39,29,22,0.00,40.00,24,7,31,0.00
2013-1-11,34.0,18.1,5.0,21.0,7.0,-2.0,99,64,34,0.00,40.00,32,19,45,0.00
2013-1-12,4.0,-3.9,-10.0,0.0,-5.1,-11.0,96,94,78,0.00,40.00,20,10,27,0.00
2013-1-13,7.0,-4.1,-10.0,3.0,-5.5,-10.0,96,93,74,0.00,40.00,9,5,11,0.00
2013-1-14,2.0,-5.5,-12.0,-3.0,-9.2,-14.0,95,84,70,0.00,40.00,21,8,26,0.00
2013-1-15,20.0,9.6,-4.0,14.0,2.9,-10.0,80,73,64,0.00,40.00,34,27,44,0.00
2013-1-16,33.0,21.5,14.0,21.0,15.8,11.0,89,78,56,0.00,40.00,35,18,47,0.00
2013-1-17,39.0,25.6,14.0,17.0,12.1,8.0,82,58,33,0.00,40.00,25,10,34,0.00
2013-1-18,38.0,31.4,25.0,12.0,8.7,6.0,43,38,33,0.00,40.00,42,27,53,0.00
2013-1-19,41.0,32.5,25.0,11.0,6.6,1.0,41,33,24,0.00,40.00,42,19,53,0.00
2013-1-20,38.0,30.1,24.0,10.0,6.4,4.0,42,36,31,0.00,40.00,37,20,47,0.00
2013-1-21,37.0,30.7,22.0,14.0,9.2,4.0,47,40,30,0.00,40.00,40,30,55,0.00
2013-1-22,45.0,36.0,26.0,9.0,3.9,-3.0,36,25,19,0.00,40.00,35,20,47,0.00
2013-1-23,51.0,42.6,35.0,13.0,4.6,-3.0,25,20,16,0.00,40.00,32,16,42,0.00
2013-1-24,47.0,37.2,31.0,31.0,15.8,2.0,87,45,21,0.00,40.00,32,18,44,0.00
2013-1-25,44.0,35.4,28.0,29.0,27.3,25.0,92,73,53,0.00,40.00,27,14,32,0.00
2013-1-26,44.0,36.0,30.0,31.0,27.7,25.0,91,72,53,0.00,40.00,21,8,26,0.00
2013-1-27,44.0,35.0,27.0,32.0,21.8,11.0,99,63,29,0.00,40.00,21,11,31,0.00
2013-1-28,33.0,23.6,11.0,27.0,16.9,5.0,99,77,46,0.00,40.00,23,13,31,0.00
2013-1-29,16.0,9.7,4.0,8.0,3.2,-1.0,98,75,51,0.00,40.00,29,17,34,0.00
2013-1-30,24.0,15.4,0.0,20.0,11.2,0.0,98,83,70,0.00,40.00,42,27,52,0.00
2013-1-31,29.0,26.0,22.0,19.0,16.1,13.0,82,66,55,0.00,40.00,34,26,45,0.00